EW4443 Weather Reports


time (UTC)temp
F
wind
direction
speed
knots
gust
knots
rain 1hr
in
rain 24hr
in
rain mn
in
humidity
%
barometer
mb
20260904204345 100 180 0.9 6.1 0.00 0.00 0.00 32 1009.3
20260904203845 100 180 0.9 6.1 0.00 0.00 0.00 34 1009.7
20260904203346 100 180 0.9 6.1 0.00 0.00 0.00 34 1009.7
20260904202845 100 45 0.9 7.8 0.00 0.00 0.00 34 1009.7
20260904202346 100 180 0.9 7.8 0.00 0.00 0.00 35 1009.7
20260904201846 99 203 0.0 5.2 0.00 0.00 0.00 35 1010.0
20260904201345 99 338 0.9 5.2 0.00 0.00 0.00 35 1010.0
20260904200845 99 225 0.9 6.1 0.00 0.00 0.00 35 1010.5
20260904200616 99 203 0.9 7.0 0.00 0.00 0.00 35 1010.5
20260904195845 99 180 1.7 8.7 0.00 0.00 0.00 35 1010.5
20260904195351 98 158 0.9 7.0 0.00 0.00 0.00 37 1010.8
20260904195343 99 180 1.7 8.7 0.00 0.00 0.00 37 1010.5
20260904194844 98 180 0.0 4.3 0.00 0.00 0.00 37 1010.5
20260904193844 98 68 0.9 7.0 0.00 0.00 0.00 37 1010.5
20260904193617 98 158 1.7 7.0 0.00 0.00 0.00 37 1010.8
20260904192845 98 180 0.9 4.3 0.00 0.00 0.00 37 1010.8
20260904192345 98 0 1.7 7.8 0.00 0.00 0.00 37 1010.8
20260904191845 99 180 0.9 7.8 0.00 0.00 0.00 37 1010.8
20260904191616 99 180 1.7 6.1 0.00 0.00 0.00 37 1010.8
20260904190844 99 180 0.9 6.1 0.00 0.00 0.00 37 1011.1
20260904190344 99 180 0.9 6.1 0.00 0.00 0.00 37 1011.1
20260904185843 99 180 0.9 6.1 0.00 0.00 0.00 37 1011.1
20260904185614 98 180 0.0 7.0 0.00 0.00 0.00 39 1011.5
20260904184845 98 135 0.9 7.0 0.00 0.00 0.00 40 1011.5
20260904184345 98 158 1.7 7.0 0.00 0.00 0.00 39 1011.1
20260904183845 98 180 0.9 7.0 0.00 0.00 0.00 39 1011.5
20260904183345 98 270 0.9 6.1 0.00 0.00 0.00 39 1011.5
20260904182845 98 225 0.9 5.2 0.00 0.00 0.00 39 1011.5
20260904182344 98 180 0.9 7.0 0.00 0.00 0.00 40 1011.5
20260904181843 98 180 1.7 7.0 0.00 0.00 0.00 40 1011.8
20260904181343 97 203 0.9 6.1 0.00 0.00 0.00 40 1011.8
20260904180844 97 225 1.7 6.1 0.00 0.00 0.00 39 1011.8
20260904180344 97 248 0.9 7.8 0.00 0.00 0.00 40 1011.8
20260904175844 97 180 1.7 7.8 0.00 0.00 0.00 40 1011.8
20260904175344 98 135 1.7 7.0 0.00 0.00 0.00 40 1011.8
20260904174844 98 135 0.9 6.1 0.00 0.00 0.00 40 1012.5
20260904174344 97 225 0.9 6.1 0.00 0.00 0.00 40 1012.1
20260904173843 97 90 0.9 7.0 0.00 0.00 0.00 40 1012.1
20260904173343 97 180 0.9 7.0 0.00 0.00 0.00 40 1012.1
20260904172843 96 135 1.7 7.0 0.00 0.00 0.00 41 1012.1
20260904172342 96 180 1.7 7.8 0.00 0.00 0.00 41 1012.5
20260904171844 96 203 1.7 7.8 0.00 0.00 0.00 41 1012.1
20260904171344 96 203 1.7 7.8 0.00 0.00 0.00 41 1012.5
20260904170844 96 158 1.7 8.7 0.00 0.00 0.00 41 1012.1
20260904170344 96 248 1.7 8.7 0.00 0.00 0.00 43 1012.1
20260904165844 96 180 1.7 8.7 0.00 0.00 0.00 43 1012.1
20260904165346 95 158 1.7 7.8 0.00 0.00 0.00 44 1012.1
20260904165342 95 23 1.7 7.0 0.00 0.00 0.00 43 1011.8
20260904164342 95 180 1.7 7.8 0.00 0.00 0.00 44 1012.1
20260904163842 95 203 0.9 7.0 0.00 0.00 0.00 45 1011.8
20260904163343 94 158 0.9 6.1 0.00 0.00 0.00 44 1011.8
20260904162843 94 203 0.9 6.1 0.00 0.00 0.00 45 1012.1
20260904162343 93 180 1.7 6.1 0.00 0.00 0.00 46 1011.8
20260904161843 92 180 0.9 6.1 0.00 0.00 0.00 49 1012.1
20260904161344 91 45 0.9 7.8 0.00 0.00 0.00 50 1012.1
20260904160842 91 248 1.7 7.8 0.00 0.00 0.00 50 1012.1
20260904160342 90 180 1.7 7.8 0.00 0.00 0.00 50 1012.1
20260904155841 90 180 1.7 8.7 0.00 0.00 0.00 50 1012.1
20260904155612 90 180 1.7 8.7 0.00 0.00 0.00 51 1012.1
20260904154842 90 180 0.9 10.4 0.00 0.00 0.00 53 1011.8
20260904154343 90 225 1.7 10.4 0.00 0.00 0.00 53 1012.1
20260904153843 90 158 0.9 5.2 0.00 0.00 0.00 53 1011.8
20260904153343 90 158 0.9 5.2 0.00 0.00 0.00 53 1011.8
20260904152843 89 180 0.9 5.2 0.00 0.00 0.00 54 1011.8
20260904152341 89 68 0.9 5.2 0.00 0.00 0.00 55 1011.8
20260904151842 89 203 0.0 7.0 0.00 0.00 0.00 55 1011.8
20260904151341 88 180 0.9 7.0 0.00 0.00 0.00 55 1011.8
20260904150841 88 203 1.7 5.2 0.00 0.00 0.00 55 1011.8
20260904150343 88 180 0.0 5.2 0.00 0.00 0.00 55 1011.5
20260904150117 87 225 0.9 5.2 0.00 0.00 0.00 56 1011.8
20260904145842 87 180 0.0 5.2 0.00 0.00 0.00 56 1011.8
20260904144842 87 270 0.0 5.2 0.00 0.00 0.00 56 1011.5
20260904144343 87 203 0.9 5.2 0.00 0.00 0.00 58 1011.5
20260904143843 86 225 0.0 2.6 0.00 0.00 0.00 58 1011.5
20260904143340 86 180 0.0 4.3 0.00 0.00 0.00 59 1011.5
20260904143111 86 248 0.0 4.3 0.00 0.00 0.00 59 1011.1
20260904142341 85 225 0.0 3.5 0.00 0.00 0.00 60 1011.1
20260904142113 85 90 0.9 3.5 0.00 0.00 0.00 60 1011.1
20260904141342 85 180 0.0 4.3 0.00 0.00 0.00 61 1011.5
20260904141114 85 180 0.9 4.3 0.00 0.00 0.00 61 1011.1
20260904140342 84 180 0.9 6.1 0.00 0.00 0.00 61 1011.1
20260904135842 84 180 0.9 6.1 0.00 0.00 0.00 61 1010.8
20260904135340 84 135 0.9 6.1 0.00 0.00 0.00 61 1010.8
20260904135111 84 180 0.9 5.2 0.00 0.00 0.00 61 1010.8
20260904134341 84 203 0.9 5.2 0.00 0.00 0.00 61 1010.8
20260904133842 84 203 0.9 4.3 0.00 0.00 0.00 61 1010.8
20260904133342 84 203 0.9 4.3 0.00 0.00 0.00 61 1010.5
20260904132842 84 45 0.9 4.3 0.00 0.00 0.00 61 1010.8
20260904132342 84 158 0.9 2.6 0.00 0.00 0.00 61 1010.5
20260904131842 84 113 0.0 5.2 0.00 0.00 0.00 61 1010.8
20260904131342 84 45 0.9 5.2 0.00 0.00 0.00 61 1010.5
20260904130842 84 180 0.9 5.2 0.00 0.00 0.00 60 1010.5
20260904130341 84 45 0.0 2.6 0.00 0.00 0.00 60 1010.5
20260904125840 84 113 0.9 2.6 0.00 0.00 0.00 60 1010.0
20260904125341 84 135 0.0 1.7 0.00 0.00 0.00 60 1010.5
20260904124840 84 180 0.0 2.6 0.00 0.00 0.00 60 1010.0
20260904124346 84 180 0.0 2.6 0.00 0.00 0.00 59 1009.7
20260904124342 84 270 0.0 2.6 0.00 0.00 0.00 60 1010.0
20260904123342 84 113 0.9 2.6 0.00 0.00 0.00 59 1010.0
20260904122841 84 203 0.0 2.6 0.00 0.00 0.00 59 1009.7
20260904122342 84 90 0.9 3.5 0.00 0.00 0.00 59 1009.7
20260904122111 85 158 0.9 3.5 0.00 0.00 0.00 59 1009.7
20260904121340 85 45 0.0 2.6 0.00 0.00 0.00 58 1009.3
20260904120841 85 113 0.0 2.6 0.00 0.00 0.00 58 1009.7
20260904120341 85 180 0.0 2.6 0.00 0.00 0.00 58 1009.7
20260904115841 85 135 0.0 0.9 0.00 0.00 0.00 58 1009.7
20260904115342 85 225 0.0 1.7 0.00 0.00 0.00 56 1009.7
20260904114841 85 158 0.0 1.7 0.00 0.00 0.00 56 1010.0
20260904114341 85 135 0.0 0.9 0.00 0.00 0.00 56 1009.7
20260904113842 85 135 0.0 2.6 0.00 0.00 0.00 56 1009.7
20260904113341 85 158 0.0 2.6 0.00 0.00 0.00 56 1009.7
20260904112841 85 135 0.0 3.5 0.00 0.00 0.00 56 1009.7
20260904112340 85 203 0.0 3.5 0.00 0.00 0.00 56 1009.7
20260904111841 85 180 0.0 3.5 0.00 0.00 0.00 56 1009.7
20260904111341 85 203 0.0 3.5 0.00 0.00 0.00 55 1009.7
20260904111112 85 203 0.0 2.6 0.00 0.00 0.00 55 1009.7
20260904110341 85 180 0.0 1.7 0.00 0.00 0.00 55 1009.3
20260904105841 85 113 0.0 1.7 0.00 0.00 0.00 55 1009.3
20260904105342 85 0 0.0 0.9 0.00 0.00 0.00 55 1009.3
20260904104842 85 293 0.0 2.6 0.00 0.00 0.00 55 1009.7
20260904104340 85 45 0.0 2.6 0.00 0.00 0.00 55 1009.3
20260904103841 85 45 0.0 2.6 0.00 0.00 0.00 55 1009.7
20260904103340 85 248 0.0 3.5 0.00 0.00 0.00 55 1009.3
20260904102841 85 180 0.0 3.5 0.00 0.00 0.00 55 1009.3
20260904102613 85 180 0.0 3.5 0.00 0.00 0.00 55 1009.3
20260904101841 86 158 0.0 3.5 0.00 0.00 0.00 55 1009.3
20260904101342 86 158 0.0 3.5 0.00 0.00 0.00 55 1009.3
20260904100841 86 158 0.0 2.6 0.00 0.00 0.00 55 1009.3
20260904100342 86 158 0.0 2.6 0.00 0.00 0.00 55 1009.3
20260904095840 86 68 0.0 3.5 0.00 0.00 0.00 55 1009.0
20260904095340 86 180 0.0 4.3 0.00 0.00 0.00 55 1009.0
20260904094841 86 180 0.0 4.3 0.00 0.00 0.00 55 1009.3
20260904094340 86 180 0.0 4.3 0.00 0.00 0.00 55 1009.0
20260904093841 86 158 0.0 4.3 0.00 0.00 0.00 55 1009.0
20260904093341 86 248 0.0 0.0 0.00 0.00 0.00 54 1009.0
20260904092842 86 270 0.0 0.9 0.00 0.00 0.00 54 1009.0
20260904092341 86 135 0.0 0.9 0.00 0.00 0.00 54 1009.0
20260904092112 86 45 0.0 0.0 0.00 0.00 0.00 55 1009.0
20260904091342 86 23 0.0 0.0 0.00 0.00 0.00 54 1009.0
20260904090840 86 23 0.0 0.9 0.00 0.00 0.00 53 1009.3
20260904090610 86 45 0.0 0.9 0.00 0.00 0.00 54 1008.7
20260904085840 86 270 0.0 0.9 0.00 0.00 0.00 54 1009.0
20260904085341 86 180 0.0 0.0 0.00 0.00 0.00 55 1009.0
20260904084841 86 180 0.0 0.0 0.00 0.00 0.00 54 1009.3
20260904084613 86 180 0.0 1.7 0.00 0.00 0.00 54 1009.3
20260904083841 86 180 0.0 1.7 0.00 0.00 0.00 53 1009.3
20260904083342 86 180 0.0 1.7 0.00 0.00 0.00 54 1009.3
20260904082840 86 203 0.0 3.5 0.00 0.00 0.00 53 1009.3
20260904082341 86 180 0.9 3.5 0.00 0.00 0.00 54 1009.3
20260904081841 86 203 0.0 3.5 0.00 0.00 0.00 54 1009.0
20260904081340 86 158 0.9 5.2 0.00 0.00 0.00 54 1009.0
20260904080841 87 135 0.9 5.2 0.00 0.00 0.00 53 1009.3
20260904080341 87 180 0.9 6.1 0.00 0.00 0.00 54 1009.3
20260904075842 87 180 0.9 6.1 0.00 0.00 0.00 53 1009.0
20260904075341 87 158 0.9 5.2 0.00 0.00 0.00 53 1009.3
20260904074842 87 180 0.9 5.2 0.00 0.00 0.00 53 1009.3
20260904074340 87 180 0.9 6.1 0.00 0.00 0.00 53 1009.3
20260904073841 87 225 1.7 6.1 0.00 0.00 0.00 53 1009.0
20260904073339 87 225 0.9 7.0 0.00 0.00 0.00 51 1009.0
20260904072840 87 158 1.7 7.0 0.00 0.00 0.00 51 1009.0
20260904072341 87 225 0.9 6.1 0.00 0.00 0.00 51 1009.0
20260904071341 88 180 0.9 5.2 0.00 0.00 0.00 51 1009.0
20260904070841 88 203 0.9 5.2 0.00 0.00 0.00 51 1009.0
20260904070340 88 203 0.9 5.2 0.00 0.00 0.00 51 1009.0
20260904065839 88 90 0.9 5.2 0.00 0.00 0.00 50 1009.0
20260904065610 88 203 0.9 4.3 0.00 0.00 0.00 50 1008.7
20260904065558 88 203 0.9 6.1 0.00 0.00 0.00 50 1008.7
20260904064340 89 180 0.9 6.1 0.00 0.00 0.00 50 1008.7
20260904063840 89 180 1.7 6.1 0.00 0.00 0.00 50 1008.7
20260904063340 89 203 0.9 5.2 0.00 0.00 0.00 50 1008.7
20260904062841 89 203 1.7 5.2 0.00 0.00 0.00 50 1008.7
20260904062341 89 180 0.9 9.6 0.00 0.00 0.00 50 1008.7
20260904061840 89 180 1.7 9.6 0.00 0.00 0.00 49 1008.7
20260904061341 89 203 1.7 7.8 0.00 0.00 0.00 49 1008.7
20260904060839 90 180 1.7 7.0 0.00 0.00 0.00 49 1008.7
20260904060339 90 158 1.7 7.0 0.00 0.00 0.00 48 1008.7
20260904055840 90 135 1.7 7.8 0.00 0.00 0.00 48 1008.3
20260904055339 90 180 1.7 7.8 0.00 0.00 0.00 46 1008.3
20260904054840 90 180 1.7 7.8 0.00 0.00 0.00 46 1008.3
20260904054340 90 180 0.9 4.3 0.00 0.00 0.00 45 1008.3
20260904053840 91 180 0.9 6.1 0.00 0.00 0.00 45 1008.7
20260904053340 91 203 0.9 7.8 0.00 0.00 0.00 45 1008.3
20260904052840 91 158 1.7 7.8 0.00 0.00 0.00 45 1008.3
20260904052611 91 113 1.7 7.0 0.00 0.00 0.00 45 1008.3
20260904051839 91 158 0.0 4.3 0.00 0.00 0.00 44 1008.3
20260904051339 91 203 0.9 4.3 0.00 0.00 0.00 44 1008.3
20260904050838 91 180 0.9 2.6 0.00 0.00 0.00 43 1008.3
20260904050340 91 203 0.0 3.5 0.00 0.00 0.00 43 1008.0
20260904045840 91 203 0.9 4.3 0.00 0.00 0.00 43 1008.3
20260904045340 91 203 0.9 6.1 0.00 0.00 0.00 43 1008.3
20260904044845 91 225 0.9 6.1 0.00 0.00 0.00 43 1008.3
20260904044340 91 180 1.7 7.8 0.00 0.00 0.00 43 1008.7
20260904043838 91 180 1.7 7.8 0.00 0.00 0.00 41 1008.3
20260904043339 91 158 0.9 5.2 0.00 0.00 0.00 41 1008.3
20260904042838 91 203 0.9 5.2 0.00 0.00 0.00 41 1008.3
20260904042338 91 203 0.9 5.2 0.00 0.00 0.00 41 1008.3
20260904041840 91 203 0.9 5.2 0.00 0.00 0.00 41 1008.0
20260904041339 91 180 0.9 5.2 0.00 0.00 0.00 41 1008.0
20260904040844 91 270 0.0 3.5 0.00 0.00 0.00 43 1008.0
20260904040839 91 225 0.0 2.6 0.00 0.00 0.00 43 1008.0
20260904035839 91 180 0.0 3.5 0.00 0.00 0.00 43 1008.0
20260904035338 91 180 0.0 3.5 0.00 0.00 0.00 43 1008.0
20260904034840 91 158 0.9 3.5 0.00 0.00 0.00 43 1007.6
20260904034609 91 180 0.0 2.6 0.00 0.00 0.00 43 1007.6
20260904033842 91 135 0.9 4.3 0.00 0.00 0.00 43 1007.3
20260904033838 91 135 0.0 4.3 0.00 0.00 0.00 43 1007.6
20260904032838 91 203 0.0 3.5 0.00 0.00 0.00 41 1007.6
20260904032339 91 113 0.0 0.9 0.00 0.00 0.00 41 1007.3
20260904031840 91 113 0.0 1.7 0.00 0.00 0.00 41 1007.3
20260904031339 91 158 0.0 1.7 0.00 0.00 0.00 41 1007.3
20260904030837 91 248 0.0 2.6 0.00 0.00 0.00 41 1007.3
20260904030337 91 203 0.0 2.6 0.00 0.00 0.00 41 1007.3
20260904025838 92 158 0.0 0.9 0.00 0.00 0.00 41 1007.3
20260904025338 92 113 0.0 0.9 0.00 0.00 0.00 41 1007.3
20260904025109 92 338 0.0 1.7 0.00 0.00 0.00 41 1006.9
20260904024610 92 248 0.0 1.7 0.00 0.00 0.00 41 1006.9
20260904023839 92 113 0.0 2.6 0.00 0.00 0.00 40 1006.5
20260904023611 92 248 0.0 2.6 0.00 0.00 0.00 41 1006.9
20260904022839 92 293 0.0 2.6 0.00 0.00 0.00 41 1006.9
20260904022337 92 270 0.0 2.6 0.00 0.00 0.00 41 1006.9
20260904021838 92 180 0.9 2.6 0.00 0.00 0.00 41 1006.9
20260904021339 92 158 0.0 2.6 0.00 0.00 0.00 41 1006.5
20260904020837 92 135 0.0 4.3 0.00 0.00 0.00 40 1006.9
20260904020338 92 270 0.9 6.1 0.00 0.00 0.00 40 1006.9
20260904015839 92 270 0.9 7.0 0.00 0.00 0.00 41 1006.9
20260904015339 93 180 1.7 7.0 0.00 0.00 0.00 40 1006.9
20260904014838 93 180 0.9 7.0 0.00 0.00 0.00 40 1006.9
20260904014339 93 225 0.9 6.1 0.00 0.00 0.00 41 1006.9
20260904014111 93 180 0.9 7.8 0.00 0.00 0.00 40 1007.3
20260904013338 93 203 1.7 9.6 0.00 0.00 0.00 40 1006.9
20260904012837 94 158 1.7 9.6 0.00 0.00 0.00 40 1006.9
20260904012337 94 158 2.6 9.6 0.00 0.00 0.00 37 1006.9
20260904011838 95 180 1.7 8.7 0.00 0.00 0.00 37 1006.9
20260904011339 96 180 1.7 11.3 0.00 0.00 0.00 37 1006.9
20260904010838 97 180 2.6 11.3 0.00 0.00 0.00 35 1006.9
20260904010338 98 158 1.7 8.7 0.00 0.00 0.00 34 1006.5
20260904005839 98 158 0.9 3.5 0.00 0.00 0.00 34 1006.2
20260904005337 98 180 0.9 3.5 0.00 0.00 0.00 32 1006.5
20260904004837 98 203 0.9 4.3 0.00 0.00 0.00 32 1006.5
20260904004608 98 203 0.9 5.2 0.00 0.00 0.00 31 1006.2
20260904004108 98 180 0.9 5.2 0.00 0.00 0.00 31 1006.2
20260904003337 99 180 0.9 5.2 0.00 0.00 0.00 31 1006.2
20260904003109 99 180 0.9 5.2 0.00 0.00 0.00 31 1006.2
20260904002338 99 180 0.0 5.2 0.00 0.00 0.00 31 1006.2
20260904001839 99 180 0.9 6.1 0.00 0.00 0.00 31 1006.2
20260904001609 99 180 0.9 6.1 0.00 0.00 0.00 31 1006.2
20260904000839 99 180 0.9 5.2 0.00 0.00 0.00 31 1006.2
20260904000340 100 203 1.7 5.2 0.00 0.00 0.00 31 1006.2
20260903235837 100 248 0.0 3.5 0.00 0.00 0.00 31 1006.2
20260903235337 100 180 0.0 3.5 0.00 0.00 0.00 32 1006.2
20260903234838 100 90 0.9 5.2 0.00 0.00 0.00 31 1006.2
20260903234338 100 248 0.9 5.2 0.00 0.00 0.00 31 1006.2
20260903233838 100 225 0.9 5.2 0.00 0.00 0.00 30 1006.2
20260903233338 100 248 0.0 3.5 0.00 0.00 0.00 34 1006.5
20260903232838 100 338 0.0 3.5 0.00 0.00 0.00 31 1006.5
20260903232338 100 45 0.0 4.3 0.00 0.00 0.00 31 1006.5
20260903231836 100 203 0.9 6.1 0.00 0.00 0.00 30 1006.5
20260903231337 100 23 0.9 6.1 0.00 0.00 0.00 30 1006.5
20260903231108 101 203 0.9 7.0 0.00 0.00 0.00 30 1006.5
20260903230338 101 135 1.7 7.0 0.00 0.00 0.00 30 1006.9
20260903225837 101 158 0.9 7.0 0.00 0.00 0.00 30 1006.9
20260903225608 101 203 0.9 7.0 0.00 0.00 0.00 30 1006.9
20260903224837 101 225 0.9 7.0 0.00 0.00 0.00 30 1006.9
20260903224609 101 203 0.0 3.5 0.00 0.00 0.00 31 1006.9
20260903223837 101 203 0.0 3.5 0.00 0.00 0.00 30 1006.9
20260903223338 101 90 0.9 3.5 0.00 0.00 0.00 30 1007.3
20260903222836 101 270 0.9 3.5 0.00 0.00 0.00 30 1007.3
20260903222336 101 180 0.0 2.6 0.00 0.00 0.00 30 1007.3
20260903221836 101 180 0.0 6.1 0.00 0.00 0.00 31 1007.3
20260903221337 101 113 1.7 6.1 0.00 0.00 0.00 30 1007.3
20260903220837 101 180 0.9 4.3 0.00 0.00 0.00 30 1007.6
20260903220337 100 180 0.9 4.3 0.00 0.00 0.00 31 1007.6
20260903220109 100 158 0.0 1.7 0.00 0.00 0.00 30 1007.6
20260903215318 100 158 0.0 6.1 0.00 0.00 0.00 32 1007.6
20260903214817 100 203 1.7 6.1 0.00 0.00 0.00 30 1008.0
20260903214317 100 203 1.7 7.0 0.00 0.00 0.00 30 1008.0
20260903213818 100 158 1.7 7.0 0.00 0.00 0.00 30 1008.3
20260903213317 100 270 0.9 7.8 0.00 0.00 0.00 32 1008.3
20260903212817 100 203 1.7 7.8 0.00 0.00 0.00 30 1008.3
20260903212318 100 113 0.9 7.8 0.00 0.00 0.00 31 1008.3
20260903211818 100 158 1.7 7.8 0.00 0.00 0.00 30 1008.7
20260903211549 100 180 0.0 5.2 0.00 0.00 0.00 30 1008.7
20260903211535 99 248 0.9 6.1 0.00 0.00 0.00 32 1008.7
20260903210818 99 203 0.9 5.2 0.00 0.00 0.00 30 1008.7
20260903205817 99 158 1.7 8.7 0.00 0.00 0.00 31 1009.0
20260903205321 99 180 1.7 8.7 0.00 0.00 0.00 30 1009.0
20260903205317 99 180 2.6 8.7 0.00 0.00 0.00 31 1009.0